Year,Month,Day,Hour,Minute,Value (Times are PST for temperature in C)
2014,12,10,00,00,12.40
2014,12,10,00,01,12.40
2014,12,10,00,02,12.40
2014,12,10,00,03,12.40
2014,12,10,00,04,12.40
2014,12,10,00,05,12.40
2014,12,10,00,06,12.40
2014,12,10,00,07,12.40
2014,12,10,00,08,12.40
2014,12,10,00,09,12.40
2014,12,10,00,10,12.30
2014,12,10,00,11,12.30
2014,12,10,00,12,12.30
2014,12,10,00,13,12.30
2014,12,10,00,14,12.30
2014,12,10,00,15,12.30
2014,12,10,00,16,12.30
2014,12,10,00,17,12.30
2014,12,10,00,18,12.30
2014,12,10,00,19,12.20
2014,12,10,00,20,12.20
2014,12,10,00,21,12.20
2014,12,10,00,22,12.20
2014,12,10,00,23,12.20
2014,12,10,00,24,12.20
2014,12,10,00,25,12.10
2014,12,10,00,26,12.10
2014,12,10,00,27,12.10
2014,12,10,00,28,12.10
2014,12,10,00,29,12.10
2014,12,10,00,30,12.10
2014,12,10,00,31,12.10
2014,12,10,00,32,12.10
2014,12,10,00,33,12.10
2014,12,10,00,34,12.10
2014,12,10,00,35,12.10
2014,12,10,00,36,12.10
2014,12,10,00,37,12.20
2014,12,10,00,38,12.20
2014,12,10,00,39,12.20
2014,12,10,00,40,12.20
2014,12,10,00,41,12.20
2014,12,10,00,42,12.20
2014,12,10,00,43,12.20
2014,12,10,00,44,12.20
2014,12,10,00,45,12.20
2014,12,10,00,46,12.20
2014,12,10,00,47,12.10
2014,12,10,00,48,12.10
2014,12,10,00,49,12.10
2014,12,10,00,50,12.10
2014,12,10,00,51,12.10
2014,12,10,00,52,12.00
2014,12,10,00,53,12.00
2014,12,10,00,54,11.90
2014,12,10,00,55,11.90
2014,12,10,00,56,11.90
2014,12,10,00,57,11.80
2014,12,10,00,58,11.80
2014,12,10,00,59,11.80
2014,12,10,01,00,11.70
2014,12,10,01,01,11.70
2014,12,10,01,02,11.70
2014,12,10,01,03,11.60
2014,12,10,01,04,11.60
2014,12,10,01,05,11.60
2014,12,10,01,06,11.60
2014,12,10,01,07,11.50
2014,12,10,01,08,11.50
2014,12,10,01,09,11.50
2014,12,10,01,10,11.40
2014,12,10,01,11,11.40
2014,12,10,01,12,11.40
2014,12,10,01,13,11.40
2014,12,10,01,14,11.40
2014,12,10,01,15,11.40
2014,12,10,01,16,11.30
2014,12,10,01,17,11.30
2014,12,10,01,18,11.30
2014,12,10,01,19,11.30
2014,12,10,01,20,11.30
2014,12,10,01,21,11.30
2014,12,10,01,22,11.30
2014,12,10,01,23,11.30
2014,12,10,01,24,11.20
2014,12,10,01,25,11.20
2014,12,10,01,26,11.20
2014,12,10,01,27,11.20
2014,12,10,01,28,11.20
2014,12,10,01,29,11.20
2014,12,10,01,30,11.10
2014,12,10,01,31,11.10
2014,12,10,01,32,11.10
2014,12,10,01,33,11.10
2014,12,10,01,34,11.10
2014,12,10,01,35,11.10
2014,12,10,01,36,11.10
2014,12,10,01,37,11.00
2014,12,10,01,38,11.00
2014,12,10,01,39,11.00
2014,12,10,01,40,11.00
2014,12,10,01,41,11.00
2014,12,10,01,42,11.00
2014,12,10,01,43,10.90
2014,12,10,01,44,10.90
2014,12,10,01,45,10.90
2014,12,10,01,46,10.90
2014,12,10,01,47,10.90
2014,12,10,01,48,10.90
2014,12,10,01,49,10.90
2014,12,10,01,50,10.90
2014,12,10,01,51,10.90
2014,12,10,01,52,10.90
2014,12,10,01,53,10.90
2014,12,10,01,54,10.90
2014,12,10,01,55,10.90
2014,12,10,01,56,11.00
2014,12,10,01,57,11.00
2014,12,10,01,58,11.00
2014,12,10,01,59,11.00
2014,12,10,02,00,11.00
2014,12,10,02,01,11.10
2014,12,10,02,02,11.10
2014,12,10,02,03,11.10
2014,12,10,02,04,11.10
2014,12,10,02,05,11.10
2014,12,10,02,06,11.10
2014,12,10,02,07,11.10
2014,12,10,02,08,11.10
2014,12,10,02,09,11.20
2014,12,10,02,10,11.20
2014,12,10,02,11,11.20
2014,12,10,02,12,11.20
2014,12,10,02,13,11.20
2014,12,10,02,14,11.20
2014,12,10,02,15,11.20
2014,12,10,02,16,11.20
2014,12,10,02,17,11.20
2014,12,10,02,18,11.20
2014,12,10,02,19,11.20
2014,12,10,02,20,11.30
2014,12,10,02,21,11.30
2014,12,10,02,22,11.30
2014,12,10,02,23,11.30
2014,12,10,02,24,11.30
2014,12,10,02,25,11.30
2014,12,10,02,26,11.30
2014,12,10,02,27,11.30
2014,12,10,02,28,11.30
2014,12,10,02,29,11.30
2014,12,10,02,30,11.30
2014,12,10,02,31,11.30
2014,12,10,02,32,11.30
2014,12,10,02,33,11.30
2014,12,10,02,34,11.30
2014,12,10,02,35,11.30
2014,12,10,02,36,11.30
2014,12,10,02,37,11.40
2014,12,10,02,38,11.40
2014,12,10,02,39,11.40
2014,12,10,02,40,11.40
2014,12,10,02,41,11.40
2014,12,10,02,42,11.40
2014,12,10,02,43,11.40
2014,12,10,02,44,11.40
2014,12,10,02,45,11.40
2014,12,10,02,46,11.40
2014,12,10,02,47,11.40
2014,12,10,02,48,11.40
2014,12,10,02,49,11.40
2014,12,10,02,50,11.40
2014,12,10,02,51,11.40
2014,12,10,02,52,11.40
2014,12,10,02,53,11.40
2014,12,10,02,54,11.40
2014,12,10,02,55,11.40
2014,12,10,02,56,11.50
2014,12,10,02,57,11.50
2014,12,10,02,58,11.50
2014,12,10,02,59,11.50
2014,12,10,03,00,11.50
2014,12,10,03,01,11.50
2014,12,10,03,02,11.50
2014,12,10,03,03,11.50
2014,12,10,03,04,11.50
2014,12,10,03,05,11.50
2014,12,10,03,06,11.50
2014,12,10,03,07,11.50
2014,12,10,03,08,11.50
2014,12,10,03,09,11.50
2014,12,10,03,10,11.60
2014,12,10,03,11,11.60
2014,12,10,03,12,11.60
2014,12,10,03,13,11.60
2014,12,10,03,14,11.60
2014,12,10,03,15,11.60
2014,12,10,03,16,11.60
2014,12,10,03,17,11.60
2014,12,10,03,18,11.60
2014,12,10,03,19,11.60
2014,12,10,03,20,11.60
2014,12,10,03,21,11.60
2014,12,10,03,22,11.60
2014,12,10,03,23,11.60
2014,12,10,03,24,11.60
2014,12,10,03,25,11.60
2014,12,10,03,26,11.70
2014,12,10,03,27,11.70
2014,12,10,03,28,11.70
2014,12,10,03,29,11.70
2014,12,10,03,30,11.70
2014,12,10,03,31,11.70
2014,12,10,03,32,11.70
2014,12,10,03,33,11.70
2014,12,10,03,34,11.70
2014,12,10,03,35,11.70
2014,12,10,03,36,11.70
2014,12,10,03,37,11.70
2014,12,10,03,38,11.70
2014,12,10,03,39,11.70
2014,12,10,03,40,11.70
2014,12,10,03,41,11.70
2014,12,10,03,42,11.70
2014,12,10,03,43,11.70
2014,12,10,03,44,11.70
2014,12,10,03,45,11.70
2014,12,10,03,46,11.70
2014,12,10,03,47,11.60
2014,12,10,03,48,11.60
2014,12,10,03,49,11.60
2014,12,10,03,50,11.60
2014,12,10,03,51,11.60
2014,12,10,03,52,11.60
2014,12,10,03,53,11.60
2014,12,10,03,54,11.60
2014,12,10,03,55,11.60
2014,12,10,03,56,11.60
2014,12,10,03,57,11.60
2014,12,10,03,58,11.60
2014,12,10,03,59,11.60
2014,12,10,04,00,11.60
2014,12,10,04,01,11.60
2014,12,10,04,02,11.60
2014,12,10,04,03,11.60
2014,12,10,04,04,11.60
2014,12,10,04,05,11.60
2014,12,10,04,06,11.60
2014,12,10,04,07,11.70
2014,12,10,04,08,11.70
2014,12,10,04,09,11.70
2014,12,10,04,10,11.70
2014,12,10,04,11,11.70
2014,12,10,04,12,11.70
2014,12,10,04,13,11.70
2014,12,10,04,14,11.70
2014,12,10,04,15,11.70
2014,12,10,04,16,11.70
2014,12,10,04,17,11.70
2014,12,10,04,18,11.70
2014,12,10,04,19,11.70
2014,12,10,04,20,11.70
2014,12,10,04,21,11.70
2014,12,10,04,22,11.70
2014,12,10,04,23,11.70
2014,12,10,04,24,11.70
2014,12,10,04,25,11.70
2014,12,10,04,26,11.70
2014,12,10,04,27,11.70
2014,12,10,04,28,11.70
2014,12,10,04,29,11.70
2014,12,10,04,30,11.70
2014,12,10,04,31,11.70
2014,12,10,04,32,11.70
2014,12,10,04,33,11.70
2014,12,10,04,34,11.70
2014,12,10,04,35,11.70
2014,12,10,04,36,11.70
2014,12,10,04,37,11.70
2014,12,10,04,38,11.70
2014,12,10,04,39,11.70
2014,12,10,04,40,11.70
2014,12,10,04,41,11.70
2014,12,10,04,42,11.70
2014,12,10,04,43,11.70
2014,12,10,04,44,11.70
2014,12,10,04,45,11.70
2014,12,10,04,46,11.70
2014,12,10,04,47,11.70
2014,12,10,04,48,11.70
2014,12,10,04,49,11.70
2014,12,10,04,50,11.70
2014,12,10,04,51,11.70
2014,12,10,04,52,11.70
2014,12,10,04,53,11.70
2014,12,10,04,54,11.70
2014,12,10,04,55,11.70
2014,12,10,04,56,11.70
2014,12,10,04,57,11.70
2014,12,10,04,58,11.70
2014,12,10,04,59,11.70
2014,12,10,05,00,11.70
2014,12,10,05,01,11.70
2014,12,10,05,02,11.60
2014,12,10,05,03,11.60
2014,12,10,05,04,11.60
2014,12,10,05,05,11.70
2014,12,10,05,06,11.70
2014,12,10,05,07,11.70
2014,12,10,05,08,11.70
2014,12,10,05,09,11.70
2014,12,10,05,10,11.70
2014,12,10,05,11,11.70
2014,12,10,05,12,11.70
2014,12,10,05,13,11.80
2014,12,10,05,14,11.80
2014,12,10,05,15,11.80
2014,12,10,05,16,11.80
2014,12,10,05,17,11.80
2014,12,10,05,18,11.80
2014,12,10,05,19,11.80
2014,12,10,05,20,11.80
2014,12,10,05,21,11.80
2014,12,10,05,22,11.90
2014,12,10,05,23,11.90
2014,12,10,05,24,11.90
2014,12,10,05,25,11.90
2014,12,10,05,26,11.90
2014,12,10,05,27,11.90
2014,12,10,05,28,11.90
2014,12,10,05,29,12.00
2014,12,10,05,30,11.90
2014,12,10,05,31,12.00
2014,12,10,05,32,12.00
2014,12,10,05,33,12.00
2014,12,10,05,34,12.00
2014,12,10,05,35,12.00
2014,12,10,05,36,12.10
2014,12,10,05,37,12.10
2014,12,10,05,38,12.20
2014,12,10,05,39,12.20
2014,12,10,05,40,12.20
2014,12,10,05,41,12.30
2014,12,10,05,42,12.30
2014,12,10,05,43,12.30
2014,12,10,05,44,12.30
2014,12,10,05,45,12.30
2014,12,10,05,46,12.40
2014,12,10,05,47,12.40
2014,12,10,05,48,12.40
2014,12,10,05,49,12.40
2014,12,10,05,50,12.40
2014,12,10,05,51,12.40
2014,12,10,05,52,12.50
2014,12,10,05,53,12.50
2014,12,10,05,54,12.50
2014,12,10,05,55,12.50
2014,12,10,05,56,12.50
2014,12,10,05,57,12.50
2014,12,10,05,58,12.60
2014,12,10,05,59,12.60
2014,12,10,06,00,12.60
2014,12,10,06,01,12.60
2014,12,10,06,02,12.60
2014,12,10,06,03,12.60
2014,12,10,06,04,12.60
2014,12,10,06,05,12.60
2014,12,10,06,06,12.60
2014,12,10,06,07,12.70
2014,12,10,06,08,12.70
2014,12,10,06,09,12.70
2014,12,10,06,10,12.70
2014,12,10,06,11,12.70
2014,12,10,06,12,12.70
2014,12,10,06,13,12.70
2014,12,10,06,14,12.70
2014,12,10,06,15,12.70
2014,12,10,06,16,12.80
2014,12,10,06,17,12.80
2014,12,10,06,18,12.80
2014,12,10,06,19,12.80
2014,12,10,06,20,12.90
2014,12,10,06,21,12.90
2014,12,10,06,22,12.90
2014,12,10,06,23,12.90
2014,12,10,06,24,12.90
2014,12,10,06,25,12.90
2014,12,10,06,26,12.90
2014,12,10,06,27,12.80
2014,12,10,06,28,12.80
2014,12,10,06,29,12.80
2014,12,10,06,30,12.90
2014,12,10,06,31,12.80
2014,12,10,06,32,12.80
2014,12,10,06,33,12.90
2014,12,10,06,34,12.90
2014,12,10,06,35,12.90
2014,12,10,06,36,12.90
2014,12,10,06,37,12.90
2014,12,10,06,38,12.90
2014,12,10,06,39,12.90
2014,12,10,06,40,12.90
2014,12,10,06,41,12.90
2014,12,10,06,42,12.90
2014,12,10,06,43,12.90
2014,12,10,06,44,12.90
2014,12,10,06,45,12.90
2014,12,10,06,46,12.90
2014,12,10,06,47,12.90
2014,12,10,06,48,12.90
2014,12,10,06,49,12.90
2014,12,10,06,50,12.90
2014,12,10,06,51,12.90
2014,12,10,06,52,12.90
2014,12,10,06,53,12.90
2014,12,10,06,54,13.00
2014,12,10,06,55,13.00
2014,12,10,06,56,13.00
2014,12,10,06,57,13.10
2014,12,10,06,58,13.10
2014,12,10,06,59,13.10
2014,12,10,07,00,13.10
2014,12,10,07,01,13.10
2014,12,10,07,02,13.10
2014,12,10,07,03,13.20
2014,12,10,07,04,13.20
2014,12,10,07,05,13.20
2014,12,10,07,06,13.20
2014,12,10,07,07,13.30
2014,12,10,07,08,13.30
2014,12,10,07,09,13.30
2014,12,10,07,10,13.30
2014,12,10,07,11,13.30
2014,12,10,07,12,13.30
2014,12,10,07,13,13.30
2014,12,10,07,14,13.30
2014,12,10,07,15,13.30
2014,12,10,07,16,13.30
2014,12,10,07,17,13.30
2014,12,10,07,18,13.30
2014,12,10,07,19,13.30
2014,12,10,07,20,13.40
2014,12,10,07,21,13.40
2014,12,10,07,22,13.40
2014,12,10,07,23,13.40
2014,12,10,07,24,13.40
2014,12,10,07,25,13.40
2014,12,10,07,26,13.30
2014,12,10,07,27,13.30
2014,12,10,07,28,13.40
2014,12,10,07,29,13.40
2014,12,10,07,30,13.40
2014,12,10,07,31,13.40
2014,12,10,07,32,13.40
2014,12,10,07,33,13.40
2014,12,10,07,34,13.40
2014,12,10,07,35,13.40
2014,12,10,07,36,13.40
2014,12,10,07,37,13.40
2014,12,10,07,38,13.40
2014,12,10,07,39,13.40
2014,12,10,07,40,13.40
2014,12,10,07,41,13.50
2014,12,10,07,42,13.50
2014,12,10,07,43,13.50
2014,12,10,07,44,13.50
2014,12,10,07,45,13.50
2014,12,10,07,46,13.60
2014,12,10,07,47,13.60
2014,12,10,07,48,13.60
2014,12,10,07,49,13.60
2014,12,10,07,50,13.70
2014,12,10,07,51,13.70
2014,12,10,07,52,13.70
2014,12,10,07,53,13.70
2014,12,10,07,54,13.80
2014,12,10,07,55,13.80
2014,12,10,07,56,13.80
2014,12,10,07,57,13.80
2014,12,10,07,58,13.80
2014,12,10,07,59,13.80
2014,12,10,08,00,13.80
2014,12,10,08,01,13.80
2014,12,10,08,02,13.80
2014,12,10,08,03,13.80
2014,12,10,08,04,13.70
2014,12,10,08,05,13.70
2014,12,10,08,06,13.70
2014,12,10,08,07,13.70
2014,12,10,08,08,13.70
2014,12,10,08,09,13.70
2014,12,10,08,10,13.70
2014,12,10,08,11,13.70
2014,12,10,08,12,13.70
2014,12,10,08,13,13.70
2014,12,10,08,14,13.60
2014,12,10,08,15,13.60
2014,12,10,08,16,13.60
2014,12,10,08,17,13.60
2014,12,10,08,18,13.60
2014,12,10,08,19,13.60
2014,12,10,08,20,13.50
2014,12,10,08,21,13.50
2014,12,10,08,22,13.50
2014,12,10,08,23,13.50
2014,12,10,08,24,13.40
2014,12,10,08,25,13.40
2014,12,10,08,26,13.40
2014,12,10,08,27,13.40
2014,12,10,08,28,13.40
2014,12,10,08,29,13.40
2014,12,10,08,30,13.30
2014,12,10,08,31,13.30
2014,12,10,08,32,13.30
2014,12,10,08,33,13.30
2014,12,10,08,34,13.30
2014,12,10,08,35,13.30
2014,12,10,08,36,13.30
2014,12,10,08,37,13.30
2014,12,10,08,38,13.30
2014,12,10,08,39,13.30
2014,12,10,08,40,13.30
2014,12,10,08,41,13.30
2014,12,10,08,42,13.30
2014,12,10,08,43,13.30
2014,12,10,08,44,13.30
2014,12,10,08,45,13.30
2014,12,10,08,46,13.30
2014,12,10,08,47,13.30
2014,12,10,08,48,13.30
2014,12,10,08,49,13.30
2014,12,10,08,50,13.30
2014,12,10,08,51,13.30
2014,12,10,08,52,13.30
2014,12,10,08,53,13.30
2014,12,10,08,54,13.30
2014,12,10,08,55,13.30
2014,12,10,08,56,13.30
2014,12,10,08,57,13.30
2014,12,10,08,58,13.40
2014,12,10,08,59,13.40
2014,12,10,09,00,13.40
2014,12,10,09,01,13.40
2014,12,10,09,02,13.40
2014,12,10,09,03,13.40
2014,12,10,09,04,13.40
2014,12,10,09,05,13.50
2014,12,10,09,06,13.50
2014,12,10,09,07,13.50
2014,12,10,09,08,13.50
2014,12,10,09,09,13.50
2014,12,10,09,10,13.50
2014,12,10,09,11,13.50
2014,12,10,09,12,13.50
2014,12,10,09,13,13.50
2014,12,10,09,14,13.50
2014,12,10,09,15,13.50
2014,12,10,09,16,13.50
2014,12,10,09,17,13.50
2014,12,10,09,18,13.50
2014,12,10,09,19,13.50
2014,12,10,09,20,13.50
2014,12,10,09,21,13.50
2014,12,10,09,22,13.50
2014,12,10,09,23,13.50
2014,12,10,09,24,13.50
2014,12,10,09,25,13.50
2014,12,10,09,26,13.50
2014,12,10,09,27,13.50
2014,12,10,09,28,13.50
2014,12,10,09,29,13.50
2014,12,10,09,30,13.50
2014,12,10,09,31,13.50
2014,12,10,09,32,13.50
2014,12,10,09,33,13.50
2014,12,10,09,34,13.50
2014,12,10,09,35,13.50
2014,12,10,09,36,13.60
2014,12,10,09,37,13.60
2014,12,10,09,38,13.50
2014,12,10,09,39,13.50
2014,12,10,09,40,13.40
2014,12,10,09,41,13.30
2014,12,10,09,42,13.30
2014,12,10,09,43,13.20
2014,12,10,09,44,13.20
2014,12,10,09,45,13.20
2014,12,10,09,46,13.20
2014,12,10,09,47,13.10
2014,12,10,09,48,13.10
2014,12,10,09,49,13.10
2014,12,10,09,50,13.10
2014,12,10,09,51,13.10
2014,12,10,09,52,13.10
2014,12,10,09,53,13.10
2014,12,10,09,54,13.10
2014,12,10,09,55,13.10
2014,12,10,09,56,13.10
2014,12,10,09,57,13.10
2014,12,10,09,58,13.20
2014,12,10,09,59,13.20
2014,12,10,10,00,13.20
2014,12,10,10,01,13.30
2014,12,10,10,02,13.30
2014,12,10,10,03,13.30
2014,12,10,10,04,13.30
2014,12,10,10,05,13.30
2014,12,10,10,06,13.30
2014,12,10,10,07,13.30
2014,12,10,10,08,13.30
2014,12,10,10,09,13.30
2014,12,10,10,10,13.30
2014,12,10,10,11,13.30
2014,12,10,10,12,13.30
2014,12,10,10,13,13.30
2014,12,10,10,14,13.30
2014,12,10,10,15,13.30
2014,12,10,10,16,13.30
2014,12,10,10,17,13.30
2014,12,10,10,18,13.30
2014,12,10,10,19,13.30
2014,12,10,10,20,13.30
2014,12,10,10,21,13.30
2014,12,10,10,22,13.30
2014,12,10,10,23,13.30
2014,12,10,10,24,13.30
2014,12,10,10,25,13.30
2014,12,10,10,26,13.30
2014,12,10,10,27,13.30
2014,12,10,10,28,13.20
2014,12,10,10,29,13.20
2014,12,10,10,30,13.20
2014,12,10,10,31,13.20
2014,12,10,10,32,13.20
2014,12,10,10,33,13.20
2014,12,10,10,34,13.20
2014,12,10,10,35,13.20
2014,12,10,10,36,13.20
2014,12,10,10,37,13.20
2014,12,10,10,38,13.20
2014,12,10,10,39,13.20
2014,12,10,10,40,13.20
2014,12,10,10,41,13.20
2014,12,10,10,42,13.20
2014,12,10,10,43,13.20
2014,12,10,10,44,13.20
2014,12,10,10,45,13.20
2014,12,10,10,46,13.20
2014,12,10,10,47,13.20
2014,12,10,10,48,13.20
2014,12,10,10,49,13.20
2014,12,10,10,50,13.20
2014,12,10,10,51,13.20
2014,12,10,10,52,13.30
2014,12,10,10,53,13.30
2014,12,10,10,54,13.30
2014,12,10,10,55,13.30
2014,12,10,10,56,13.30
2014,12,10,10,57,13.30
2014,12,10,10,58,13.30
2014,12,10,10,59,13.30
2014,12,10,11,00,13.30
2014,12,10,11,01,13.30
2014,12,10,11,02,13.30
2014,12,10,11,03,13.30
2014,12,10,11,04,13.30
2014,12,10,11,05,13.30
2014,12,10,11,06,13.30
2014,12,10,11,07,13.30
2014,12,10,11,08,13.30
2014,12,10,11,09,13.30
2014,12,10,11,10,13.30
2014,12,10,11,11,13.30
2014,12,10,11,12,13.30
2014,12,10,11,13,13.30
2014,12,10,11,14,13.30
2014,12,10,11,15,13.30
2014,12,10,11,16,13.30
2014,12,10,11,17,13.30
2014,12,10,11,18,13.30
2014,12,10,11,19,13.30
2014,12,10,11,20,13.30
2014,12,10,11,21,13.30
2014,12,10,11,22,13.30
2014,12,10,11,23,13.30
2014,12,10,11,24,13.30
2014,12,10,11,25,13.30
2014,12,10,11,26,13.20
2014,12,10,11,27,13.20
2014,12,10,11,28,13.20
2014,12,10,11,29,13.20
2014,12,10,11,30,13.20
2014,12,10,11,31,13.20
2014,12,10,11,32,13.20
2014,12,10,11,33,13.20
2014,12,10,11,34,13.20
2014,12,10,11,35,13.20
2014,12,10,11,36,13.20
2014,12,10,11,37,13.20
2014,12,10,11,38,13.20
2014,12,10,11,39,13.20
2014,12,10,11,40,13.20
2014,12,10,11,41,13.20
2014,12,10,11,42,13.20
2014,12,10,11,43,13.20
2014,12,10,11,44,13.20
2014,12,10,11,45,13.20
2014,12,10,11,46,13.20
2014,12,10,11,47,13.20
2014,12,10,11,48,13.20
2014,12,10,11,49,13.20
2014,12,10,11,50,13.20
2014,12,10,11,51,13.20
2014,12,10,11,52,13.30
2014,12,10,11,53,13.30
2014,12,10,11,54,13.20
2014,12,10,11,55,13.20
2014,12,10,11,56,13.20
2014,12,10,11,57,13.20
2014,12,10,11,58,13.20
2014,12,10,11,59,13.30
2014,12,10,12,00,13.30
2014,12,10,12,01,13.30
2014,12,10,12,02,13.30
2014,12,10,12,03,13.30
2014,12,10,12,04,13.30
2014,12,10,12,05,13.30
2014,12,10,12,06,13.30
2014,12,10,12,07,13.30
2014,12,10,12,08,13.30
2014,12,10,12,09,13.30
2014,12,10,12,10,13.30
2014,12,10,12,11,13.30
2014,12,10,12,12,13.30
2014,12,10,12,13,13.30
2014,12,10,12,14,13.30
2014,12,10,12,15,13.30
2014,12,10,12,16,13.30
2014,12,10,12,17,13.20
2014,12,10,12,18,13.20
2014,12,10,12,19,13.20
2014,12,10,12,20,13.20
2014,12,10,12,21,13.10
2014,12,10,12,22,13.10
2014,12,10,12,23,13.10
2014,12,10,12,24,13.10
2014,12,10,12,25,13.10
2014,12,10,12,26,13.10
2014,12,10,12,27,13.10
2014,12,10,12,28,13.10
2014,12,10,12,29,13.10
2014,12,10,12,30,13.10
2014,12,10,12,31,13.00
2014,12,10,12,32,13.00
2014,12,10,12,33,13.00
2014,12,10,12,34,13.00
2014,12,10,12,35,13.00
2014,12,10,12,36,13.00
2014,12,10,12,37,13.00
2014,12,10,12,38,13.00
2014,12,10,12,39,13.00
2014,12,10,12,40,13.10
2014,12,10,12,41,13.10
2014,12,10,12,42,13.10
2014,12,10,12,43,13.10
2014,12,10,12,44,13.10
2014,12,10,12,45,13.10
2014,12,10,12,46,13.10
2014,12,10,12,47,13.20
2014,12,10,12,48,13.10
2014,12,10,12,49,13.10
2014,12,10,12,50,13.10
2014,12,10,12,51,13.10
2014,12,10,12,52,13.10
2014,12,10,12,53,13.10
2014,12,10,12,54,13.10
2014,12,10,12,55,13.10
2014,12,10,12,56,13.10
2014,12,10,12,57,13.10
2014,12,10,12,58,13.10
2014,12,10,12,59,13.10
2014,12,10,13,00,13.10
2014,12,10,13,01,13.00
2014,12,10,13,02,13.00
2014,12,10,13,03,12.90
2014,12,10,13,04,12.90
2014,12,10,13,05,12.90
2014,12,10,13,06,12.80
2014,12,10,13,07,12.80
2014,12,10,13,08,12.90
2014,12,10,13,09,12.90
2014,12,10,13,10,12.90
2014,12,10,13,11,12.90
2014,12,10,13,12,12.90
2014,12,10,13,13,12.90
2014,12,10,13,14,12.90
2014,12,10,13,15,12.90
2014,12,10,13,16,12.90
2014,12,10,13,17,13.00
2014,12,10,13,18,13.00
2014,12,10,13,19,13.00
2014,12,10,13,20,13.00
2014,12,10,13,21,13.00
2014,12,10,13,22,13.00
2014,12,10,13,23,13.00
2014,12,10,13,24,13.00
2014,12,10,13,25,13.00
2014,12,10,13,26,13.00
2014,12,10,13,27,13.00
2014,12,10,13,28,13.00
2014,12,10,13,29,13.00
2014,12,10,13,30,13.00
2014,12,10,13,31,13.00
2014,12,10,13,32,13.00
2014,12,10,13,33,13.00
2014,12,10,13,34,13.00
2014,12,10,13,35,13.00
2014,12,10,13,36,13.10
2014,12,10,13,37,13.10
2014,12,10,13,38,13.10
2014,12,10,13,39,13.10
2014,12,10,13,40,13.00
2014,12,10,13,41,13.10
2014,12,10,13,42,13.10
2014,12,10,13,43,13.10
2014,12,10,13,44,13.10
2014,12,10,13,45,13.10
2014,12,10,13,46,13.10
2014,12,10,13,47,13.10
2014,12,10,13,48,13.10
2014,12,10,13,49,13.10
2014,12,10,13,50,13.10
2014,12,10,13,51,13.10
2014,12,10,13,52,13.10
2014,12,10,13,53,13.10
2014,12,10,13,54,13.10
2014,12,10,13,55,13.10
2014,12,10,13,56,13.10
2014,12,10,13,57,13.10
2014,12,10,13,58,13.10
2014,12,10,13,59,13.10
2014,12,10,14,00,13.10
2014,12,10,14,01,13.10
2014,12,10,14,02,13.10
2014,12,10,14,03,13.10
2014,12,10,14,04,13.10
2014,12,10,14,05,13.10
2014,12,10,14,06,13.10
2014,12,10,14,07,13.10
2014,12,10,14,08,13.10
2014,12,10,14,09,13.10
2014,12,10,14,10,13.10
2014,12,10,14,11,13.10
2014,12,10,14,12,13.00
2014,12,10,14,13,13.00
2014,12,10,14,14,13.00
2014,12,10,14,15,13.00
2014,12,10,14,16,13.00
2014,12,10,14,17,13.00
2014,12,10,14,18,13.00
2014,12,10,14,19,13.00
2014,12,10,14,20,13.00
2014,12,10,14,21,13.00
2014,12,10,14,22,13.00
2014,12,10,14,23,13.00
2014,12,10,14,24,13.00
2014,12,10,14,25,13.00
2014,12,10,14,26,13.00
2014,12,10,14,27,12.90
2014,12,10,14,28,12.90
2014,12,10,14,29,12.90
2014,12,10,14,30,12.90
2014,12,10,14,31,12.90
2014,12,10,14,32,12.90
2014,12,10,14,33,12.90
2014,12,10,14,34,12.90
2014,12,10,14,35,12.80
2014,12,10,14,36,12.80
2014,12,10,14,37,12.80
2014,12,10,14,38,12.70
2014,12,10,14,39,12.70
2014,12,10,14,40,12.70
2014,12,10,14,41,12.60
2014,12,10,14,42,12.60
2014,12,10,14,43,12.50
2014,12,10,14,44,12.50
2014,12,10,14,45,12.40
2014,12,10,14,46,12.40
2014,12,10,14,47,12.40
2014,12,10,14,48,12.30
2014,12,10,14,49,12.30
2014,12,10,14,50,12.30
2014,12,10,14,51,12.30
2014,12,10,14,52,12.20
2014,12,10,14,53,12.20
2014,12,10,14,54,12.20
2014,12,10,14,55,12.20
2014,12,10,14,56,12.20
2014,12,10,14,57,12.20
2014,12,10,14,58,12.20
2014,12,10,14,59,12.20
2014,12,10,15,00,12.20
2014,12,10,15,01,12.20
2014,12,10,15,02,12.20
2014,12,10,15,03,12.20
2014,12,10,15,04,12.20
2014,12,10,15,05,12.20
2014,12,10,15,06,12.20
2014,12,10,15,07,12.20
2014,12,10,15,08,12.20
2014,12,10,15,09,12.20
2014,12,10,15,10,12.20
2014,12,10,15,11,12.20
2014,12,10,15,12,12.20
2014,12,10,15,13,12.20
2014,12,10,15,14,12.20
2014,12,10,15,15,12.20
2014,12,10,15,16,12.20
2014,12,10,15,17,12.20
2014,12,10,15,18,12.20
2014,12,10,15,19,12.20
2014,12,10,15,20,12.20
2014,12,10,15,21,12.20
2014,12,10,15,22,12.20
2014,12,10,15,23,12.20
2014,12,10,15,24,12.20
2014,12,10,15,25,12.20
2014,12,10,15,26,12.20
2014,12,10,15,27,12.20
2014,12,10,15,28,12.20
2014,12,10,15,29,12.20
2014,12,10,15,30,12.10
2014,12,10,15,31,12.10
2014,12,10,15,32,12.10
2014,12,10,15,33,12.10
2014,12,10,15,34,12.10
2014,12,10,15,35,12.10
2014,12,10,15,36,12.10
2014,12,10,15,37,12.10
2014,12,10,15,38,12.10
2014,12,10,15,39,12.10
2014,12,10,15,40,12.10
2014,12,10,15,41,12.10
2014,12,10,15,42,12.10
2014,12,10,15,43,12.10
2014,12,10,15,44,12.10
2014,12,10,15,45,12.10
2014,12,10,15,46,12.10
2014,12,10,15,47,12.10
2014,12,10,15,48,12.10
2014,12,10,15,49,12.10
2014,12,10,15,50,12.10
2014,12,10,15,51,12.10
2014,12,10,15,52,12.10
2014,12,10,15,53,12.10
2014,12,10,15,54,12.10
2014,12,10,15,55,12.10
2014,12,10,15,56,12.10
2014,12,10,15,57,12.10
2014,12,10,15,58,12.10
2014,12,10,15,59,12.10
2014,12,10,16,00,12.10
2014,12,10,16,01,12.10
2014,12,10,16,02,12.10
2014,12,10,16,03,12.10
2014,12,10,16,04,12.10
2014,12,10,16,05,12.10
2014,12,10,16,06,12.10
2014,12,10,16,07,12.10
2014,12,10,16,08,12.10
2014,12,10,16,09,12.10
2014,12,10,16,10,12.10
2014,12,10,16,11,12.10
2014,12,10,16,12,12.10
2014,12,10,16,13,12.10
2014,12,10,16,14,12.10
2014,12,10,16,15,12.10
2014,12,10,16,16,12.10
2014,12,10,16,17,12.10
2014,12,10,16,18,12.10
2014,12,10,16,19,12.10
2014,12,10,16,20,12.10
2014,12,10,16,21,12.10
2014,12,10,16,22,12.10
2014,12,10,16,23,12.10
2014,12,10,16,24,12.10
2014,12,10,16,25,12.10
2014,12,10,16,26,12.10
2014,12,10,16,27,12.10
2014,12,10,16,28,12.10
2014,12,10,16,29,12.10
2014,12,10,16,30,12.10
2014,12,10,16,31,12.10
2014,12,10,16,32,12.10
2014,12,10,16,33,12.10
2014,12,10,16,34,12.10
2014,12,10,16,35,12.10
2014,12,10,16,36,12.10
2014,12,10,16,37,12.10
2014,12,10,16,38,12.10
2014,12,10,16,39,12.10
2014,12,10,16,40,12.10
2014,12,10,16,41,12.10
2014,12,10,16,42,12.10
2014,12,10,16,43,12.10
2014,12,10,16,44,12.10
2014,12,10,16,45,12.10
2014,12,10,16,46,12.10
2014,12,10,16,47,12.10
2014,12,10,16,48,12.10
2014,12,10,16,49,12.10
2014,12,10,16,50,12.10
2014,12,10,16,51,12.10
2014,12,10,16,52,12.10
2014,12,10,16,53,12.10
2014,12,10,16,54,12.10
2014,12,10,16,55,12.10
2014,12,10,16,56,12.10
2014,12,10,16,57,12.10
2014,12,10,16,58,12.10
2014,12,10,16,59,12.10
2014,12,10,17,00,12.10
2014,12,10,17,01,12.20
2014,12,10,17,02,12.20
2014,12,10,17,03,12.20
2014,12,10,17,04,12.20
2014,12,10,17,05,12.20
2014,12,10,17,06,12.20
2014,12,10,17,07,12.20
2014,12,10,17,08,12.20
2014,12,10,17,09,12.20
2014,12,10,17,10,12.20
2014,12,10,17,11,12.20
2014,12,10,17,12,12.20
2014,12,10,17,13,12.20
2014,12,10,17,14,12.20
2014,12,10,17,15,12.20
2014,12,10,17,16,12.20
2014,12,10,17,17,12.20
2014,12,10,17,18,12.20
2014,12,10,17,19,12.10